Location: Artigues
(43.0756°N, 0.0025°E)
Time: 14:52:35
(UTC+00:00)

Daily predictions for brighter satellites

Satellite Brightness Start Highest point End
(mag) Time Altitude Azimuth Time Altitude Azimuth Time Altitude Azimuth
ERS-1 Rocket 4.1 20:10:56 10° SE 20:15:14 29° ENE 20:19:32 10° N
Cosmos 1763 Rocket 3.6 20:13:18 10° NNW 20:18:34 87° WSW 20:23:44 10° SSE
Cosmos 1707 2.6 20:18:55 10° S 20:22:28 63° E 20:26:03 10° NNE
RESURS DK-1 3.9 20:20:02 10° N 20:23:19 23° NE 20:26:36 10° ESE
CSL-04 Rocket 4.3 20:18:38 10° S 20:23:48 57° W 20:29:05 10° NNW
Terra 2.9 20:22:19 10° SE 20:26:21 29° ENE 20:30:25 10° N
PSLV R/B 4.4 20:24:32 10° S 20:27:58 49° W 20:31:23 10° NNW
IRIDIUM 104 4.4 20:22:45 10° N 20:28:00 84° W 20:33:12 10° S
CZ-4C R/B 3.4 20:31:44 10° NNE 20:35:53 71° ESE 20:39:58 10° S
Cosmos 1980 Rocket 3.4 20:30:45 10° NW 20:35:59 39° WSW 20:41:10 10° S
ATLAS 2AS CENTAUR R/B 3.8 20:31:19 10° NNW 20:37:32 35° NE 20:43:31 10° ESE
Cosmos 2322 Rocket 3.2 20:32:49 10° N 20:38:02 35° ENE 20:42:59 11° ESE
BREEZE-M DEB (TANK) 2.9 20:35:34 10° SW 20:38:40 81° SSE 20:48:10 10° ENE
COSMOS 2406 4.3 20:34:10 10° SW 20:39:45 51° WNW 20:45:22 10° NNE
Cosmos 1674 3.9 20:38:06 10° SSW 20:41:22 39° WNW 20:44:40 10° N
ARGOS Delta rocket 3.6 20:38:02 10° SSE 20:42:29 73° ENE 20:46:52 10° N
Meteor 2-10 Rocket 4.4 20:38:13 10° N 20:43:23 38° ENE 20:47:42 13° SE
SL-4 R/B 4.2 20:44:57 10° WNW 20:48:06 24° N 20:51:24 10° NE
Cosmos 1733 Rocket 4.4 20:46:33 10° NNE 20:50:12 25° ENE 20:53:00 14° ESE
Cosmos 2278 3.7 20:45:11 10° NNW 20:50:57 86° ENE 20:56:03 13° SSE
Cosmos 468 Rocket 4.2 20:45:45 10° NNW 20:50:57 69° WSW 20:56:03 10° S
Cosmos 1553 Rocket 4.3 20:45:50 10° NNW 20:52:00 72° W 20:58:14 10° S
Ariane Rocket 3.5 20:48:54 13° SE 20:53:04 45° ENE 20:57:55 10° N
Timation 1 Rocket 4.3 20:48:35 10° SSW 20:54:27 66° ESE 21:00:22 10° NNE
SL-27 R/B 3.2 20:54:25 19° SE 20:55:15 22° ESE 20:57:30 10° NE
Cosmos 1300 3.7 20:52:17 10° NNE 20:55:24 27° ENE 20:57:21 17° ESE
S3M 4.1 20:49:34 10° N 20:55:56 67° E 21:01:39 13° SSE
Okean-O 3.4 20:51:47 10° S 20:56:03 50° W 21:00:21 10° NNW
Cosmos 1400 Rocket 2.7 20:55:07 10° S 20:58:58 66° E 21:02:48 10° NNE
Meteor 1-13 Rocket 4.3 20:53:41 10° S 20:59:30 85° W 21:05:13 10° N
Cosmos 1441 Rocket 3.4 20:56:46 10° NNW 21:00:20 64° W 21:03:43 11° S
Cosmos 1356 Rocket 4.0 20:59:27 16° SSE 21:02:25 38° E 21:06:20 10° NNE
Cosmos 2219 Rocket 3.7 20:57:53 10° N 21:02:28 24° NE 21:06:53 10° ESE
Cosmos 2266 Rocket 4.0 20:57:38 10° S 21:03:56 80° E 21:10:22 10° N
BREEZE-M DEB (TANK) 3.4 21:02:10 10° NW 21:04:03 28° NNE 21:06:32 10° E
USA 245 3.2 21:02:18 18° SSE 21:04:50 76° ENE 21:09:09 10° N
ATLAS CENTAUR R/B 0.9 21:01:37 10° SSW 21:05:02 57° ESE 21:08:32 10° NE
Cosmos 1908 3.8 21:02:19 10° NNW 21:05:50 51° W 21:09:18 10° S
Cosmos 540 Rocket 4.4 21:01:47 10° NNW 21:06:40 44° WSW 21:11:29 10° S
Cosmos 1850 Rocket 4.0 21:01:47 10° S 21:06:55 61° ESE 21:12:03 10° NNE
Cosmos 2237 4.3 21:01:54 10° NNW 21:07:40 80° WSW 21:12:18 16° SSE
Cosmos 1655 Rocket 4.1 21:03:18 10° S 21:09:34 61° E 21:15:52 10° NNE
Meteor 1-4 Rocket 3.8 21:13:07 17° E 21:13:13 17° E 21:15:17 10° NE
Cosmos 2228 Rocket 3.3 21:09:51 16° SSE 21:13:24 56° E 21:17:53 10° NNE
Cosmos 1869 Rocket 3.9 21:10:02 10° NNW 21:14:27 68° W 21:18:19 13° S
MOS 1 Rocket 3.7 21:10:22 17° SSE 21:14:34 71° ENE 21:19:51 10° N
Okean O Rocket 4.1 21:12:25 10° SW 21:15:19 17° W 21:18:13 10° NW
Cosmos 1315 Rocket 4.3 21:17:29 19° ESE 21:18:26 20° E 21:21:24 10° NE
Cosmos 1953 4.2 21:17:10 10° NNE 21:19:34 16° ENE 21:20:51 14° E
Cosmos 968 Rocket 3.6 21:15:49 12° S 21:20:24 54° ESE 21:25:28 10° NNE
SPOT 3 Rocket 3.5 21:18:17 19° SSE 21:21:57 75° ENE 21:27:07 10° N
SeaSat 1 2.5 21:19:03 20° SSE 21:22:32 79° WSW 21:27:28 10° NNW
Cosmos 1741 Rocket 4.0 21:22:08 10° SSW 21:27:23 87° ESE 21:32:43 10° NNE
Cosmos 2360 Rocket 2.3 21:22:17 10° NNW 21:27:57 65° ENE 21:31:30 23° SE
SPOT 5 4.0 21:25:07 10° SSW 21:28:59 32° W 21:32:56 10° NNW
BlueWalker 3 3.6 21:31:50 18° E 21:31:50 18° E 21:33:14 10° ENE
Landsat 4 3.4 21:30:19 28° S 21:32:00 81° WSW 21:35:27 10° NNW
COSMOS 2455 4.4 21:35:30 15° ESE 21:35:55 15° ESE 21:39:15 10° ENE
SL-16 R/B 2.8 21:34:19 10° NW 21:39:48 50° WSW 21:43:40 19° S
Landsat 5 3.4 21:38:07 10° NNE 21:42:09 65° ESE 21:44:11 28° S
SL-14 R/B 3.6 21:39:22 16° SSW 21:42:12 60° W 21:45:59 10° N
USA 234 3.6 21:35:53 10° NE 21:42:23 70° NW 21:48:52 10° WSW
Cosmos 2333 Rocket 2.2 21:38:06 10° NNW 21:43:54 80° ENE 21:47:09 27° SSE
Cosmos 1862 Rocket 3.5 21:42:41 23° S 21:45:25 89° E 21:49:52 10° N
Okean 3 3.3 21:46:08 30° S 21:48:07 77° E 21:52:18 10° N
Cosmos 1346 Rocket 2.8 21:45:42 10° NNW 21:49:33 71° W 21:51:09 33° S
Cosmos 2315 Rocket 4.3 21:47:10 10° NNW 21:53:29 67° W 21:58:04 20° S
ERS-1 Rocket 4.2 21:49:55 13° SSW 21:53:51 35° W 21:58:27 10° NNW
Cosmos 1455 3.0 21:51:25 10° NNE 21:54:35 31° ENE 21:55:03 30° E
Cosmos 1833 4.2 21:49:26 10° SSW 21:55:05 86° WNW 22:00:44 10° NNE
Atlas Centaur 2 4.0 21:49:37 10° WSW 21:56:13 27° SSW 21:58:33 24° S
CZ-4C R/B 3.7 21:58:28 14° E 21:58:28 14° E 22:00:13 10° ENE
H-2A R/B 4.5 21:58:41 15° E 22:00:13 18° ENE 22:03:04 10° NNE
RESURS DK-1 3.5 21:57:25 10° NW 22:01:06 33° WSW 22:02:41 24° SSW
Cosmos 1932 4.4 21:55:17 10° SSW 22:01:38 83° ESE 22:07:57 10° NE
Cosmos 2237 Rocket 4.4 21:59:18 10° N 22:02:35 15° NE 22:05:50 10° E
SJ 16-02 1.3 22:00:21 22° SSW 22:03:03 77° WNW 22:07:24 10° NNE
Terra 3.2 22:00:36 15° SSW 22:03:51 31° W 22:08:02 10° NNW
GENESIS II 4.4 22:04:46 43° ESE 22:04:46 43° ESE 22:07:56 10° NE
Meteor 1-16 Rocket 4.3 22:00:52 10° N 22:06:50 89° E 22:09:50 31° S
CZ-2C R/B 4.1 22:04:27 10° NNE 22:08:40 43° E 22:09:29 38° SE
Aureole 3 3.8 22:07:01 28° SSW 22:09:00 62° WNW 22:13:44 10° N
Cosmos 2333 4.2 22:06:59 10° NNW 22:12:47 80° WSW 22:15:22 35° SSE
Cosmos 2322 Rocket 3.2 22:16:53 10° NW 22:22:02 36° WSW 22:24:47 23° SSW
ARIANE 5 R/B 2.9 22:23:17 43° ESE 22:24:17 54° ENE 22:28:32 10° N
Cosmos 2297 Rocket 3.5 22:27:16 23° ESE 22:27:34 23° E 22:31:52 10° NE
SL-4 R/B 3.8 22:24:12 10° NW 22:27:43 29° NNE 22:31:24 10° ENE
ATLAS 2AS CENTAUR R/B 2.9 22:22:08 10° NW 22:28:46 58° WSW 22:31:35 34° S
Okean 1-7 3.4 22:30:05 33° SW 22:31:46 57° W 22:36:02 10° N
USA 281 3.2 22:34:22 34° SE 22:37:29 75° ENE 22:44:04 10° NNW
Cosmos 1745 Rocket 4.1 22:34:59 37° SSE 22:37:31 67° E 22:43:49 10° NNE
Cosmos 839 Rocket 4.1 22:32:27 10° NW 22:39:06 67° WSW 22:41:28 39° S
Cosmos 1908 Rocket 3.7 22:38:21 10° NNW 22:42:39 65° W 22:43:32 51° SSW
GP-B 3.0 22:38:31 10° N 22:42:57 86° W 22:43:50 57° S
ATLAS CENTAUR R/B 4.1 22:41:01 10° WNW 22:43:02 14° NW 22:45:06 10° N
Okean 2 4.4 22:43:48 29° WSW 22:45:12 39° WNW 22:48:59 10° N
Cosmos 1782 Rocket 3.5 22:41:16 10° N 22:45:35 68° E 22:46:09 59° SE
Meteor 1-4 Rocket 4.5 22:45:05 16° W 22:45:56 17° WNW 22:48:03 10° NNW
Cosmos 2219 Rocket 2.4 22:41:13 10° NNW 22:46:47 58° WSW 22:48:35 40° SSW
NOSS 8 (F) 4.5 22:47:50 84° E 22:47:50 84° E 22:51:05 10° NE
Nadezhda 1 Rocket 3.9 22:41:53 10° N 22:48:13 83° E 22:50:31 42° SSE
COSMOS 2428 2.8 22:43:16 10° NNW 22:48:57 71° ENE 22:50:54 42° SE
Cosmos 1386 Rocket 4.5 22:46:55 36° S 22:49:43 86° W 22:55:58 10° N
Cosmos 1315 Rocket 4.4 22:52:43 22° WSW 22:54:22 29° WNW 22:57:54 10° NNW
Cosmos 1953 3.2 22:52:01 10° NNW 22:55:31 35° W 22:55:58 34° WSW
H-2A R/B 4.1 22:57:05 10° NE 22:59:07 15° E 22:59:07 15° E
Cosmos 1242 Rocket 3.9 23:00:40 25° NW 23:00:40 25° NW 23:02:36 10° NNW
PSLV R/B 3.9 22:57:15 10° N 23:01:14 68° WNW 23:01:43 61° WSW
Cosmos 1300 Rocket 3.3 22:58:26 10° N 23:02:46 86° E 23:03:09 73° SSE
Cosmos 304 Rocket 4.0 23:03:17 49° ESE 23:03:29 49° ESE 23:08:04 10° NNE
Cosmos 1570 Rocket 4.1 22:58:33 10° NNW 23:03:53 70° WSW 23:05:08 51° S
BlueWalker 3 2.7 23:06:00 22° W 23:08:07 50° NNW 23:11:46 10° NE
Cosmos 158 Rocket 3.9 23:03:48 10° NNW 23:09:07 88° WSW 23:10:13 57° SSE
Cosmos 2360 Rocket 4.0 23:07:34 10° WNW 23:11:20 18° W 23:13:15 16° WSW
Cosmos 405 Rocket 4.0 23:08:50 10° NNE 23:12:07 29° ENE 23:12:07 29° ENE
ALOS 2 2.7 23:14:27 58° ESE 23:14:55 63° ENE 23:19:16 10° N
Okean 2 Rocket 4.4 23:13:30 10° NNE 23:17:23 28° ENE 23:18:04 27° E
Cosmos 1378 Rocket 4.4 23:20:47 37° E 23:20:47 37° E 23:24:46 10° NNE
COSMOS 2455 2.8 23:18:35 39° SSW 23:21:00 86° WNW 23:27:05 10° NNE
CENTAUR R/B 3.3 23:24:42 29° ESE 23:24:50 29° ESE 23:30:17 10° NE
Cosmos 1408 3.9 23:27:13 30° NW 23:27:13 30° NW 23:29:13 10° N
Cosmos 2333 Rocket 4.2 23:24:16 10° WNW 23:27:24 15° W 23:29:09 13° WSW
NOSS 0 Rocket 3.9 23:21:31 10° NNW 23:27:48 87° WSW 23:29:40 48° SSE
Cosmos 1455 4.4 23:26:46 10° NW 23:28:42 14° W 23:28:46 14° W
Spot 2 4.4 23:28:59 61° SSE 23:29:53 89° E 23:34:59 10° NNW
Cosmos 773 Rocket 3.9 23:25:52 10° NNW 23:31:02 78° ENE 23:32:01 58° SE
Cosmos 1703 3.5 23:34:51 61° NW 23:34:51 61° NW 23:38:10 10° N
H-2A R/B 3.1 23:34:40 46° WSW 23:34:47 46° W 23:38:54 10° NNW
Cosmos 2221 Rocket 4.3 23:34:53 40° E 23:34:56 40° E 23:39:06 10° NNE
Cosmos 1892 3.9 23:37:30 31° ENE 23:37:30 31° ENE 23:39:54 10° NNE
Cosmos 1709 Rocket 4.2 23:34:37 39° SSW 23:37:01 65° W 23:43:21 10° N
Cosmos 2208 Rocket 4.5 23:33:34 10° NNW 23:38:29 44° WSW 23:39:08 42° SW
SL-16 R/B 4.0 23:35:51 10° N 23:40:32 25° NE 23:44:43 12° ESE
Cosmos 2242 Rocket 4.3 23:39:46 41° WSW 23:40:33 46° WNW 23:44:58 10° N
Sich 1 Rocket 3.9 23:38:47 10° N 23:43:04 51° ENE 23:43:22 50° E
Cosmos 1777 Rocket 3.9 23:43:34 61° SSW 23:44:31 86° ESE 23:49:50 10° NNE
Cosmos 1503 Rocket 4.0 23:43:28 54° SW 23:44:42 79° WNW 23:50:02 10° NNE
CZ-4C R/B 2.1 23:43:30 42° WSW 23:44:54 62° NW 23:50:22 10° NNE
Cosmos 2237 Rocket 2.1 23:41:52 10° NNW 23:47:34 82° ENE 23:48:59 52° SE
BREEZE-M DEB (TANK) 4.1 23:38:46 10° WNW 23:48:06 46° N 23:51:14 10° ENE
Cosmos 2227 Rocket 2.3 23:50:16 52° SE 23:51:07 57° ESE 23:56:40 10° NNE
Cosmos 2184 Rocket 4.3 23:50:14 43° SE 23:52:02 57° E 23:58:15 10° NNE
Meteor 1-24 Rocket 3.9 23:52:26 45° SW 23:54:06 65° WNW 23:59:44 10° N
